Location: Newark
(45.8667°N, 9.7333°E)
Time: 03:28:31
(UTC+00:00)

A-11 Canister half - Pass Details

Date: 23 January 2020
Orbit: 1517 x 1683 km, 47.2° (Epoch: 17 February)

Event Time Altitude Azimuth Distance (km) Brightness Sun altitude
Rises 05:41:49 0° 292° (WNW) 4,665 - -12.4°
Reaches altitude 10° 05:44:57 10° 287° (WNW) 3,682 - -11.8°
Exits shadow 05:46:00 14° 285° (WNW) 3,365 10.1 -11.7°
Maximum altitude 05:53:40 49° 217° (SW) 1,911 9.4 -10.4°
Drops below altitude 10° 06:02:33 10° 146° (SSE) 3,738 11.9 -8.9°
Sets 06:05:46 0° 141° (SE) 4,741 12.7 -8.4°
